Regional Weather Roundup
Issued by NWS

Home | Current Version | Previous Version | Text Only | Print | Product List | Glossary Off
Versions: 1 2 3 4 5 6 7 8 9 10 11 12 13 14 15 16 17 18 19 20 21 22 23 24 25 26 27 28 29 30 31 32 33 34 35 36 37 38 39 40 41 42 43 44 45 46 47 48 49 50

000
ASUS43 KLMK 240802
RWRKY
KENTUCKY REGIONAL WEATHER ROUNDUP
NATIONAL WEATHER SERVICE LOUISVILLE KY
400 AM EDT MON APR 24 2017

NOTE "FAIR" INDICATES FEW OR NO CLOUDS BELOW 12,000 FEET
WITH NO SIGNIFICANT WEATHER AND/OR OBSTRUCTIONS TO VISIBILITY.

KYZ001>023-026-027-061>063-070>075-240900-
WESTERN AND SOUTH CENTRAL KENTUCKY

CITY           SKY/WX    TMP DP  RH WIND       PRES   REMARKS
PADUCAH        CLEAR     49  42  77 NW3       29.88S
HENDERSON      CLEAR     54  39  57 N7        29.89F
OWENSBORO      PTCLDY    56  38  50 N7        29.87S
HOPKINSVILLE   CLOUDY    52  49  89 N10       29.84S
BOWLING GREEN  CLOUDY    53  50  89 NE7       29.83F
GLASGOW        NOT AVBL
$$

KYZ024-025-028>034-038-045-046-053-240900-
NORTH CENTRAL KENTUCKY

CITY           SKY/WX    TMP DP  RH WIND       PRES   REMARKS
LOUISVILLE/SDF CLOUDY    56  45  66 N8        29.87F
LOUISVILLE/LOU CLOUDY    57  44  62 N6        29.88F
FORT KNOX      PTCLDY    54  45  71 NE8       29.84S
$$

KYZ035>037-039>044-047>052-055>060-089>105-240900-
NORTHEAST KENTUCKY

CITY           SKY/WX    TMP DP  RH WIND       PRES   REMARKS
LEXINGTON      CLOUDY    55  46  71 NE8       29.88F
COVINGTON      PTCLDY    53  36  52 NE9       29.92F
FRANKFORT      CLOUDY    57  45  64 NE5       29.87F
$$

KYZ054-064>069-076>088-106>120-240900-
SOUTHEAST KENTUCKY

CITY           SKY/WX    TMP DP  RH WIND       PRES   REMARKS
JACKSON        CLOUDY    50  48  93 CALM      29.86F
LONDON         CLOUDY    52  48  86 NE8       29.85F
SOMERSET       CLOUDY    52  50  93 E7        29.85F
MIDDLESBORO    CLOUDY    52  52  99 CALM      29.83F
MONTICELLO     CLOUDY    53  51  93 VRB6      29.85F
$$





USA.gov is the U.S. government's official web portal to all federal, state and local government web resources and services.